Flag for U.S.A. Weather past 2 weeks in Prudhoe Bay, Alaska, U.S.A.

Now
34 °F

Low clouds.


Feels Like: 21 °F
Forecast: 36 / 39 °F
Wind: 29 mph from East

Location: Deadhorse Airport

Current Time: Sep 4, 2015 at 12:24:04 AM

Latest Report: Sep 3, 2015 at 11:53 PM


Visibility: 10 mi

Pressure: 30.09 "Hg

Humidity: 88%

Dew point: 31 °F

Location of Prudhoe BayLocation

Historic Weather in Prudhoe Bay — Graph

°F

Prudhoe Bay temperature yesterday

Maximum temperature yesterday: 37 °F (at 4:53 PM)
Minimum temperature yesterday: 34 °F (at 3:53 AM)
Average temperature yesterday: 35 °F

Past Weeks' High & Low Weather Summary

 TemperatureHumidityPressure
High62 °F (Aug 25, 1:53 PM)100% (Aug 30, 5:53 AM)30.21 "Hg (Aug 30, 5:53 AM)
Low32 °F (Aug 30, 3:53 AM)50% (Sep 2, 11:53 AM)29.37 "Hg (Aug 26, 1:53 PM)
Average39 °F86%29.86 "Hg
* Reported Aug 19 10:53 PM — Sep 3 10:53 PM, Prudhoe Bay, Weather by CustomWeather, © 2015

Note: Actual official high and low records may vary slightly from our data, if they occured in-between our weather recording intervals... More about our weather records

Advertising

Prudhoe Bay weather history for previous 24 hours

 ConditionsComfort  
Time TempWeatherWind HumidityBarometerVisibility
10:53 PM
Thu, Sep 3
34 °FLow clouds.26 mph92%30.09 "Hg10 mi
9:53 PM34 °FLow clouds.21 mph92%30.11 "Hg10 mi
8:53 PM34 °FFog.28 mph92%30.11 "Hg6 mi
7:53 PM35 °FLow clouds.23 mph88%30.13 "Hg10 mi
6:53 PM35 °FLow clouds.26 mph88%30.14 "Hg8 mi
5:53 PM36 °FLow clouds.26 mph85%30.14 "Hg10 mi
4:53 PM37 °FLow clouds.24 mph86%30.16 "Hg10 mi
3:53 PM36 °FLow clouds.22 mph89%30.17 "Hg10 mi
2:53 PM36 °FLow clouds.25 mph89%30.18 "Hg10 mi
1:53 PM36 °FLow clouds.24 mph89%30.18 "Hg7 mi
12:53 PM35 °FFog.23 mph96%30.19 "Hg5 mi
11:53 AM35 °FFog.21 mph96%30.20 "Hg2 mi
10:53 AM35 °FFog.20 mph96%30.20 "Hg1 mi
9:53 AM35 °FFog.21 mph96%30.20 "Hg1 mi
8:53 AM34 °FFog.18 mph97%30.20 "Hg1 mi
7:53 AM34 °FFog.17 mph97%30.21 "Hg1 mi
6:53 AM34 °FFog.20 mph97%30.20 "Hg1 mi
5:57 AM34 °FFog.14 mph97%30.20 "Hg0 mi
4:53 AM35 °FFog.15 mph92%30.20 "Hg0 mi
3:53 AM34 °FClear.10 mph92%30.19 "Hg10 mi
2:53 AM35 °FClear.10 mph92%30.18 "Hg10 mi
1:53 AM36 °FPassing clouds.10 mph92%30.18 "Hg10 mi
12:53 AM36 °FPassing clouds.9 mph92%30.17 "Hg10 mi
Weather by CustomWeather, © 2015

See weather overviewHow to use our weather pages